| time (UTC) | temp F | wind direction | speed MPH | gust MPH | rain 1hr in | rain 24hr in | rain mn in | humidity % | barometer mb |
| 20260505152104 | 77 | 88 | 1.0 | 8.0 | 0.00 | 0.00 | 0.00 | 90 | |
| 20260505122050 | 71 | 93 | 0.0 | 2.0 | 0.00 | 0.00 | 0.00 | 98 | |
| 20260505115045 | 71 | 127 | 0.0 | 0.0 | 0.00 | 0.00 | 0.00 | 98 | |
| 20260505112044 | 71 | 130 | 1.0 | 2.0 | 0.00 | 0.00 | 0.00 | 97 | |
| 20260505102038 | 70 | 136 | 1.0 | 3.0 | 0.00 | 0.00 | 0.00 | 97 | |
| 20260505095037 | 69 | 99 | 1.0 | 2.0 | 0.00 | 0.00 | 0.00 | 97 | |
| 20260505092037 | 69 | 139 | 0.0 | 1.0 | 0.00 | 0.00 | 0.00 | 97 | |
| 20260505085033 | 69 | 135 | 0.0 | 1.0 | 0.00 | 0.00 | 0.00 | 96 | |
| 20260505082032 | 70 | 116 | 0.0 | 1.0 | 0.00 | 0.00 | 0.00 | 94 | |
| 20260505075029 | 70 | 132 | 0.0 | 1.0 | 0.00 | 0.00 | 0.00 | 93 | |
| 20260505072029 | 70 | 131 | 1.0 | 2.0 | 0.00 | 0.00 | 0.00 | 93 | |
| 20260505065025 | 70 | 143 | 0.0 | 1.0 | 0.00 | 0.00 | 0.00 | 92 | |
| 20260505062025 | 70 | 123 | 0.0 | 1.0 | 0.00 | 0.00 | 0.00 | 92 | |
| 20260505055024 | 70 | 131 | 0.0 | 1.0 | 0.00 | 0.00 | 0.00 | 91 | |
| 20260505052019 | 70 | 143 | 1.0 | 3.0 | 0.00 | 0.00 | 0.00 | 90 | |
| 20260505035010 | 72 | 65 | 3.0 | 3.0 | 0.00 | 0.00 | 0.00 | 85 | |
| 20260505032010 | 72 | 107 | 0.0 | 3.0 | 0.00 | 0.00 | 0.00 | 84 | |
| 20260505025009 | 73 | 162 | 2.0 | 2.0 | 0.00 | 0.00 | 0.00 | 82 | |
| 20260505022009 | 74 | 159 | 1.0 | 1.0 | 0.00 | 0.00 | 0.00 | 81 | |
| 20260505015005 | 74 | 125 | 0.0 | 2.0 | 0.00 | 0.00 | 0.00 | 82 | |
| 20260505012000 | 74 | 144 | 0.0 | 1.0 | 0.00 | 0.00 | 0.00 | 81 | |
| 20260505004957 | 75 | 161 | 0.0 | 1.0 | 0.00 | 0.00 | 0.00 | 77 | |
| 20260505001956 | 77 | 87 | 2.0 | 5.0 | 0.00 | 0.00 | 0.00 | 75 | |
| 20260504234956 | 78 | 136 | 1.0 | 1.0 | 0.00 | 0.00 | 0.00 | 72 | |
| 20260504231954 | 79 | 124 | 1.0 | 3.0 | 0.00 | 0.00 | 0.00 | 69 | |
| 20260504224953 | 80 | 147 | 1.0 | 2.0 | 0.00 | 0.00 | 0.00 | 66 | |
| 20260504221952 | 82 | 153 | 0.0 | 3.0 | 0.00 | 0.00 | 0.00 | 64 | |
| 20260504214950 | 82 | 149 | 1.0 | 2.0 | 0.00 | 0.00 | 0.00 | 62 | |
| 20260504211947 | 83 | 147 | 0.0 | 3.0 | 0.00 | 0.00 | 0.00 | 60 | |
| 20260504204942 | 82 | 109 | 2.0 | 2.0 | 0.00 | 0.00 | 0.00 | 60 | |
| 20260504201937 | 83 | 162 | 2.0 | 5.0 | 0.00 | 0.00 | 0.00 | 60 | |
| 20260504194936 | 82 | 136 | 2.0 | 3.0 | 0.00 | 0.00 | 0.00 | 61 | |
| 20260504191931 | 83 | 192 | 5.0 | 8.0 | 0.00 | 0.00 | 0.00 | 59 | |
| 20260504184927 | 82 | 23 | 3.0 | 8.0 | 0.00 | 0.00 | 0.00 | 60 | |
| 20260504181926 | 81 | 174 | 2.0 | 3.0 | 0.00 | 0.00 | 0.00 | 59 | |
| 20260504174924 | 80 | 198 | 2.0 | 6.0 | 0.00 | 0.00 | 0.00 | 61 | |
| 20260504171922 | 79 | 65 | 2.0 | 6.0 | 0.00 | 0.00 | 0.00 | 63 |